timestamp,surface_pressure_avg,surface_temp_avg,battery_voltage,lat,long
2018-01-02 00:00:00+00:00,369.7879,2.9,12.81,47.84626,-54.09684
2018-01-02 00:10:00+00:00,359.9747,2.9,12.81,47.84626,-54.09684
2018-01-02 00:20:00+00:00,364.6929,2.9,12.89,47.84626,-54.09684
2018-01-02 00:30:00+00:00,363.7646,2.9,12.89,47.84626,-54.09684
2018-01-02 00:40:00+00:00,349.6213,2.9,12.89,47.84626,-54.09684
2018-01-02 00:50:00+00:00,347.138,2.9,12.89,47.84626,-54.09684
2018-01-02 01:00:00+00:00,347.1346,2.9,12.81,47.84626,-54.09684
2018-01-02 01:10:00+00:00,333.4163,2.9,12.81,47.84626,-54.09684
2018-01-02 01:20:00+00:00,322.5829,2.9,12.89,47.84626,-54.09684
2018-01-02 01:30:00+00:00,318.5747,2.9,12.89,47.84626,-54.09684
2018-01-02 01:40:00+00:00,305.463,2.9,12.89,47.84626,-54.09684
2018-01-02 01:50:00+00:00,285.043,2.9,12.89,47.84626,-54.09684
2018-01-02 02:00:00+00:00,277.9831,2.9,12.81,47.84626,-54.09684
2018-01-02 02:10:00+00:00,270.8881,2.9,12.81,47.84626,-54.09684
2018-01-02 02:20:00+00:00,258.498,2.9,12.89,47.84626,-54.09684
2018-01-02 02:30:00+00:00,247.5714,2.9,12.89,47.84626,-54.09684
2018-01-02 02:40:00+00:00,241.3614,2.9,12.89,47.84626,-54.09684
2018-01-02 02:50:00+00:00,231.1281,2.9,12.89,47.84626,-54.09684
2018-01-02 03:00:00+00:00,220.6631,2.91,12.81,47.84626,-54.09684
2018-01-02 03:10:00+00:00,215.4114,2.98,12.81,47.84626,-54.09684
2018-01-02 03:20:00+00:00,208.6264,3.0,12.89,47.84626,-54.09684
2018-01-02 03:30:00+00:00,199.8997,3.0,12.89,47.84626,-54.09684
2018-01-02 03:40:00+00:00,194.1148,3.0,12.89,47.84626,-54.09684
2018-01-02 03:50:00+00:00,192.3881,3.0,12.89,47.84626,-54.09684
2018-01-02 04:00:00+00:00,188.6798,2.88,12.81,47.84626,-54.09684
2018-01-02 04:10:00+00:00,185.7165,2.72,12.81,47.84626,-54.09684
2018-01-02 04:20:00+00:00,189.1465,2.7,12.81,47.84626,-54.09684
2018-01-02 04:30:00+00:00,192.4232,2.7,12.81,47.84626,-54.09684
2018-01-02 04:40:00+00:00,191.1298,2.78,12.89,47.84626,-54.09684
2018-01-02 04:50:00+00:00,189.2998,2.79,12.89,47.84626,-54.09684
2018-01-02 05:00:00+00:00,188.6698,2.8,12.81,47.84626,-54.09684
2018-01-02 05:10:00+00:00,190.0931,2.8,12.73,47.84626,-54.09684
2018-01-02 05:20:00+00:00,191.8981,2.83,12.81,47.84626,-54.09684
2018-01-02 05:30:00+00:00,193.3814,2.86,12.81,47.84626,-54.09684
2018-01-02 05:40:00+00:00,194.8314,2.87,12.89,47.84626,-54.09684
2018-01-02 05:50:00+00:00,198.1831,2.89,12.89,47.84626,-54.09684
2018-01-02 06:00:00+00:00,202.8298,2.9,12.81,47.84626,-54.09684
2018-01-02 06:10:00+00:00,206.6698,2.9,12.73,47.84626,-54.09684
2018-01-02 06:20:00+00:00,211.0798,2.9,12.81,47.84626,-54.09684
2018-01-02 06:30:00+00:00,216.4547,2.96,12.81,47.84626,-54.09684
2018-01-02 06:40:00+00:00,221.8047,3.0,12.81,47.84626,-54.09684
2018-01-02 06:50:00+00:00,227.2231,3.0,12.81,47.84626,-54.09684
2018-01-02 07:00:00+00:00,231.9297,3.0,12.81,47.84626,-54.09684
2018-01-02 07:10:00+00:00,235.8031,3.0,12.73,47.84626,-54.09684
2018-01-02 07:20:00+00:00,243.0731,3.0,12.81,47.84626,-54.09684
2018-01-02 07:30:00+00:00,249.4431,3.0,12.81,47.84626,-54.09684
2018-01-02 07:40:00+00:00,254.9731,2.98,12.81,47.84626,-54.09684
2018-01-02 07:50:00+00:00,262.1364,2.9,12.81,47.84626,-54.09684
2018-01-02 08:00:00+00:00,271.3531,2.9,12.81,47.84626,-54.09684
2018-01-02 08:10:00+00:00,276.5081,2.8,12.73,47.84626,-54.09684
2018-01-02 08:20:00+00:00,279.7747,2.8,12.81,47.84626,-54.09684
2018-01-02 08:30:00+00:00,287.873,2.8,12.81,47.84626,-54.09684
2018-01-02 08:40:00+00:00,299.038,2.8,12.81,47.84626,-54.09684
2018-01-02 08:50:00+00:00,306.8597,2.7,12.81,47.84626,-54.09684
2018-01-02 09:00:00+00:00,311.103,2.4,12.73,47.84626,-54.09684
2018-01-02 09:10:00+00:00,319.953,2.41,12.73,47.84626,-54.09684
2018-01-02 09:20:00+00:00,333.6663,2.7,12.81,47.84626,-54.09684
2018-01-02 09:30:00+00:00,340.9996,2.64,12.81,47.84626,-54.09684
2018-01-02 09:40:00+00:00,349.6013,2.6,12.81,47.84626,-54.09684
2018-01-02 09:50:00+00:00,363.3579,2.6,12.81,47.84626,-54.09684
2018-01-02 10:00:00+00:00,372.9596,2.6,12.73,47.84626,-54.09684
2018-01-02 10:10:00+00:00,376.6812,2.6,12.73,47.84626,-54.09684
2018-01-02 10:20:00+00:00,385.6362,2.6,12.81,47.84626,-54.09684
2018-01-02 10:30:00+00:00,396.6446,2.6,12.81,47.84626,-54.09684
2018-01-02 10:40:00+00:00,398.5829,2.6,12.81,47.84626,-54.09684
2018-01-02 10:50:00+00:00,402.7196,2.51,12.81,47.84626,-54.09684
2018-01-02 11:00:00+00:00,411.1912,2.64,12.73,47.84626,-54.09684
2018-01-02 11:10:00+00:00,412.1363,2.7,12.73,47.84626,-54.09684
2018-01-02 11:20:00+00:00,411.1279,2.79,12.81,47.84626,-54.09684
2018-01-02 11:30:00+00:00,414.9879,2.81,12.81,47.84626,-54.09684
2018-01-02 11:40:00+00:00,417.9978,2.9,12.81,47.84626,-54.09684
2018-01-02 11:50:00+00:00,415.7446,2.96,12.81,47.84626,-54.09684
2018-01-02 12:00:00+00:00,411.9597,2.95,12.73,47.84626,-54.09684
2018-01-02 12:10:00+00:00,412.7162,2.9,12.73,47.84626,-54.09684
2018-01-02 12:20:00+00:00,410.6096,2.93,12.81,47.84626,-54.09684
2018-01-02 12:30:00+00:00,405.9463,3.0,12.81,47.84626,-54.09684
2018-01-02 12:40:00+00:00,404.3596,3.0,12.81,47.84626,-54.09684
2018-01-02 12:50:00+00:00,400.6145,3.0,12.89,47.84626,-54.09684
2018-01-02 13:00:00+00:00,392.7996,3.03,12.97,47.84626,-54.09684
2018-01-02 13:10:00+00:00,387.2696,3.09,12.97,47.84626,-54.09684
2018-01-02 13:20:00+00:00,381.8196,3.1,13.05,47.84626,-54.09684
2018-01-02 13:30:00+00:00,374.8397,3.09,13.05,47.84626,-54.09684
2018-01-02 13:40:00+00:00,365.4346,3.1,13.13,47.84626,-54.09684
2018-01-02 13:50:00+00:00,360.1779,3.1,13.13,47.84626,-54.09684
2018-01-02 14:00:00+00:00,350.3963,3.1,13.21,47.84626,-54.09684
2018-01-02 14:10:00+00:00,336.1813,3.1,13.44,47.84626,-54.09684
2018-01-02 14:20:00+00:00,326.6313,3.1,14.24,47.84626,-54.09684
2018-01-02 14:30:00+00:00,320.8997,3.1,13.68,47.84626,-54.09684
2018-01-02 14:40:00+00:00,309.7496,3.1,14.0,47.84626,-54.09684
2018-01-02 14:50:00+00:00,296.963,3.1,14.48,47.84626,-54.09684
2018-01-02 15:00:00+00:00,286.2864,3.1,13.68,47.84626,-54.09684
2018-01-02 15:10:00+00:00,274.3163,3.1,13.68,47.84626,-54.09684
2018-01-02 15:20:00+00:00,259.2097,3.1,13.6,47.84626,-54.09684
2018-01-02 15:30:00+00:00,251.4047,3.1,13.6,47.84626,-54.09684
2018-01-02 15:40:00+00:00,244.5747,3.1,13.76,47.84626,-54.09684
2018-01-02 15:50:00+00:00,230.3231,3.1,14.24,47.84626,-54.09684
2018-01-02 16:00:00+00:00,220.0915,3.0,14.32,47.84626,-54.09684
2018-01-02 16:10:00+00:00,214.9731,3.0,14.32,47.84626,-54.09684
2018-01-02 16:20:00+00:00,206.1681,3.03,13.53,47.84626,-54.09684
2018-01-02 16:30:00+00:00,199.0398,3.07,13.68,47.84626,-54.09684
2018-01-02 16:40:00+00:00,198.2831,3.08,13.37,47.84626,-54.09684
2018-01-02 16:50:00+00:00,194.3632,3.1,13.37,47.84626,-54.09684
2018-01-02 17:00:00+00:00,184.9482,3.1,13.21,47.84626,-54.09684
2018-01-02 17:10:00+00:00,181.0331,3.1,13.13,47.84626,-54.09684
2018-01-02 17:20:00+00:00,183.7281,3.1,13.21,47.84626,-54.09684
2018-01-02 17:30:00+00:00,181.7765,3.1,13.13,47.84626,-54.09684
2018-01-02 17:40:00+00:00,179.3631,3.1,13.13,47.84626,-54.09684
2018-01-02 17:50:00+00:00,180.2232,3.1,13.13,47.84626,-54.09684
2018-01-02 18:00:00+00:00,182.0614,3.1,13.05,47.84626,-54.09684
2018-01-02 18:10:00+00:00,180.4581,3.1,12.97,47.84626,-54.09684
2018-01-02 18:20:00+00:00,180.6348,3.1,13.05,47.84626,-54.09684
2018-01-02 18:30:00+00:00,185.5965,3.1,13.05,47.84626,-54.09684
2018-01-02 18:40:00+00:00,184.1515,3.1,13.05,47.84626,-54.09684
2018-01-02 18:50:00+00:00,183.2115,3.1,13.05,47.84626,-54.09684
2018-01-02 19:00:00+00:00,188.9865,3.1,12.97,47.84626,-54.09684
2018-01-02 19:10:00+00:00,192.8848,3.12,12.97,47.84626,-54.09684
2018-01-02 19:20:00+00:00,195.6164,3.2,12.97,47.84626,-54.09684
2018-01-02 19:30:00+00:00,201.8248,3.2,12.97,47.84626,-54.09684
2018-01-02 19:40:00+00:00,208.5231,3.3,12.97,47.84626,-54.09684
2018-01-02 19:50:00+00:00,211.8165,3.3,12.97,47.84626,-54.09684
2018-01-02 20:00:00+00:00,216.9448,3.3,12.89,47.84626,-54.09684
2018-01-02 20:10:00+00:00,229.2431,3.3,12.89,47.84626,-54.09684
2018-01-02 20:20:00+00:00,238.5131,3.29,12.97,47.84626,-54.09684
2018-01-02 20:30:00+00:00,239.2198,3.29,12.97,47.84626,-54.09684
2018-01-02 20:40:00+00:00,244.0714,3.26,12.97,47.84626,-54.09684
2018-01-02 20:50:00+00:00,254.7131,3.23,12.97,47.84626,-54.09684
2018-01-02 21:00:00+00:00,261.8564,3.26,12.89,47.84626,-54.09684
2018-01-02 21:10:00+00:00,267.9897,3.27,12.89,47.84626,-54.09684
2018-01-02 21:20:00+00:00,279.7881,3.25,12.97,47.84626,-54.09684
2018-01-02 21:30:00+00:00,287.7581,3.22,12.89,47.84626,-54.09684
2018-01-02 21:40:00+00:00,291.4597,3.2,12.97,47.84626,-54.09684
2018-01-02 21:50:00+00:00,304.1431,3.2,12.97,47.84626,-54.09684
2018-01-02 22:00:00+00:00,318.0447,3.1,12.89,47.84626,-54.09684
2018-01-02 22:10:00+00:00,323.1447,3.0,12.81,47.84626,-54.09684
2018-01-02 22:20:00+00:00,331.1714,2.95,12.89,47.84626,-54.09684
2018-01-02 22:30:00+00:00,348.9796,2.9,12.89,47.84626,-54.09684
2018-01-02 22:40:00+00:00,362.2613,2.89,12.89,47.84626,-54.09684
2018-01-02 22:50:00+00:00,360.3563,2.8,12.89,47.84626,-54.09684
2018-01-02 23:00:00+00:00,362.6562,2.87,12.89,47.84626,-54.09684
2018-01-02 23:10:00+00:00,373.5013,2.9,12.81,47.84626,-54.09684
2018-01-02 23:20:00+00:00,375.6196,3.01,12.89,47.84626,-54.09684
2018-01-02 23:30:00+00:00,369.2696,3.06,12.89,47.84626,-54.09684
2018-01-02 23:40:00+00:00,373.8928,3.16,12.89,47.84626,-54.09684
2018-01-02 23:50:00+00:00,379.4712,3.2,12.89,47.84626,-54.09684
